Location: ?
(35.4554°N, 139.3092°E)
Time: 22:25:27
(UTC+00:00)

BREEZE-M DEB (TANK) - Pass Details

Date: 21 April 2021
Orbit: 336 x 12027 km, 49.6° (Epoch: 09 May)

Event Time Altitude Azimuth Distance (km) Brightness Sun altitude
Exits shadow 19:27:53 - 250° (WSW) 2,466 4.7 -7.4°
Reaches altitude 10° 19:28:02 10° 250° (WSW) 2,408 4.7 -7.4°
Maximum altitude 19:33:19 66° 334° (NNW) 1,632 4.5 -6.4°
Drops below altitude 10° 19:54:09 10° 56° (NE) 8,506 9.7 -2.3°
Sets 20:06:33 0° 60° (ENE) 11,836 10.8 0.1°
